STARLINK-30973 (58713 NORAD) Tracking and Keplerian Element Data

This shows tracking and keplerian element data for the satellite.

Feedback or suggestion? Click here.




ElementValue
Catalog58713
NameSTARLINK-30973
Epoch Orbit277
Epoch Day13.25002315
Epoch Year2024
RAAN198.7859
Inclination53.1624
Eccentricity9.59E-05
Argument of Perigee88.8811
Mean Anonmoly147.3862
Mean Motion15.51452303
Decay Rate-0.01744305
L11 58713U 24002J 24013.25002315 -.01744305 00000+0 -32619-1 0 9997
L22 58713 53.1624 198.7859 0000959 88.8811 147.3862 15.51452303 2777



Live tracking and technical data element details for STARLINK-30973 (NORAD 58713). STARLINK-30973 can be tracked NOW for your location showing map with azimuth and elevation plus other details from your city location.







IsCatalogInMostPopularTable: catalog: 58713, numindb: 26
Update: records affected: 1



GetName: 58713 STARLINK-30973

Hit Count: updated at: Wed, 17 Apr 2024 03:13:05 GMT